This is the latest recevied weather packets stored in our database for station/object KM4RT-13. If no packets are shown the sender has not sent any weather packets the latest 10 day(s).
| Time | Temp. | Humidity | Pressure | Rain* | Wind** | Luminosity | Snow |
|---|---|---|---|---|---|---|---|
| 1777908778 | 22.78° C | 55% | 1011.1 hPa | 0 mm | - | 655 W/m² | - |
| 1777908475 | 22.78° C | 56% | 1011.4 hPa | 0 mm | - | 630 W/m² | - |
| 1777908172 | 22.78° C | 57% | 1011.4 hPa | 0 mm | - | 649 W/m² | - |
| 1777907868 | 22.78° C | 57% | 1011.2 hPa | 0 mm | - | 620 W/m² | - |
| 1777907564 | 22.78° C | 59% | 1011.2 hPa | 0 mm | - | 637 W/m² | - |
| 1777907260 | 22.22° C | 61% | 1011.4 hPa | 0 mm | - | 534 W/m² | - |
| 1777906956 | 22.22° C | 61% | 1011.3 hPa | 0 mm | - | 548 W/m² | - |
| 1777906654 | 21.67° C | 62% | 1011.3 hPa | 0 mm | - | 546 W/m² | - |
| 1777906350 | 21.67° C | 63% | 1011.3 hPa | 0 mm | - | 584 W/m² | - |
| 1777906047 | 21.11° C | 62% | 1011.7 hPa | 0 mm | - | 467 W/m² | - |
| 1777905743 | 21.11° C | 64% | 1011.6 hPa | 0 mm | - | 457 W/m² | - |
| 1777905441 | 20.56° C | 64% | 1011.4 hPa | 0 mm | - | 476 W/m² | - |
| 1777905138 | 20.56° C | 65% | 1011.9 hPa | 0 mm | - | 502 W/m² | - |
| 1777904835 | 21.11° C | 65% | 1011.7 hPa | 0 mm | - | 509 W/m² | - |
| 1777904532 | 20.56° C | 66% | 1011.6 hPa | 0 mm | - | 488 W/m² | - |
| 1777904229 | 20.56° C | 67% | 1011.4 hPa | 0 mm | - | 399 W/m² | - |
| 1777903926 | 20° C | 68% | 1011.5 hPa | 0 mm | - | 453 W/m² | - |
| 1777903623 | 20° C | 68% | 1011.7 hPa | 0 mm | - | 437 W/m² | - |
| 1777903318 | 20° C | 69% | 1011.6 hPa | 0 mm | - | 374 W/m² | - |
| 1777903015 | 19.44° C | 69% | 1011.5 hPa | 0 mm | - | 287 W/m² | - |
| 1777902711 | 19.44° C | 69% | 1011.7 hPa | 0 mm | - | 365 W/m² | - |
| 1777902409 | 19.44° C | 70% | 1011.5 hPa | 0 mm | - | 384 W/m² | - |
| 1777902105 | 18.89° C | 71% | 1011.4 hPa | 0 mm | - | 307 W/m² | - |
| 1777901804 | 18.89° C | 72% | 1011.2 hPa | 0 mm | - | 311 W/m² | - |
| 1777901501 | 18.89° C | 72% | 1011.4 hPa | 0 mm | - | 302 W/m² | - |
* Rain latest hour (hover to see other rain measurements)
** Current wind speed in m/s (hover to see current wind gust speed)